Coolangatta Observation History
Time Wind Speed Temp Pressure Rel. Hum Rain
25/02:00pm NE 8-11 kts 26.2°c 1010.8 hPa 69% 0.0mm
25/01:30pm NNE 9-11 kts 26.6°c 1011.1 hPa 67% 0.0mm
25/01:00pm NNE 7-10 kts 25.4°c 1011.5 hPa 73% 0.0mm
25/12:30pm NNE 9-12 kts 24.9°c 1011.7 hPa 75% 0.0mm
25/12:00pm NNE 6-10 kts 25.6°c 1012.0 hPa 67% 0.0mm
25/11:30am W 5-8 kts 25.7°c 1012.3 hPa 73% 0.0mm
25/11:00am NNE 3-5 kts 25.9°c 1012.5 hPa 65% 0.0mm
25/10:30am WSW 5-6 kts 25.9°c 1012.6 hPa 75% 0.0mm
25/10:00am WSW 6-8 kts 25.2°c 1012.8 hPa 75% 0.0mm
25/09:30am W 6-8 kts 24.6°c 1013.0 hPa 78% 0.0mm
25/09:00am WSW 5-6 kts 24.1°c 1013.0 hPa 83% 2.8mm
25/08:30am SSW 4-5 kts 23.5°c 1013.1 hPa 86% 2.8mm
25/08:00am SW 2-4 kts 22.9°c 1013.1 hPa 89% 2.8mm
25/07:50am SW 4-6 kts 22.7°c 1013.1 hPa 91% 2.8mm
25/07:30am SW 3-4 kts 22.3°c 1013.1 hPa 91% 2.6mm
25/07:16am CALM 0-3 kts 22.3°c 1013.2 hPa 90% 2.0mm
25/07:00am SW 3-5 kts 22.2°c 1013.0 hPa 91% 1.6mm
25/06:30am SW 2-4 kts 21.7°c 1012.7 hPa 93% 1.6mm
25/06:00am SSW 4-5 kts 21.1°c 1012.6 hPa 93% 1.6mm
25/05:30am SW 2-4 kts 21.1°c 1012.3 hPa 95% 1.6mm
25/05:00am SW 5-7 kts 20.9°c 1012.0 hPa 96% 1.6mm
25/04:30am WSW 5-7 kts 21.0°c 1011.9 hPa 95% 1.6mm
25/04:00am SW 4-5 kts 21.2°c 1011.6 hPa 96% 1.6mm
25/03:30am W 5-6 kts 21.0°c 1011.6 hPa 95% 1.6mm
25/03:00am SW 5-7 kts 21.5°c 1011.7 hPa 95% 1.6mm
25/02:30am SW 3-4 kts 21.5°c 1011.8 hPa 92% 1.6mm
25/02:00am SW 5-7 kts 21.9°c 1012.0 hPa 93% 1.6mm
25/01:30am WSW 6-7 kts 21.9°c 1012.4 hPa 93% 1.6mm
25/01:00am WSW 6-8 kts 21.9°c 1012.7 hPa 93% 1.6mm
25/12:30am W 5-6 kts 21.9°c 1013.2 hPa 92% 1.6mm
25/12:00am WSW 5-7 kts 22.3°c 1013.5 hPa 93% 1.6mm
Time Wind Speed Temp Pressure Rel. Hum Rain
24/11:30pm W 5-6 kts 22.5°c 1013.7 hPa 92% 1.6mm
24/11:06pm WNW 5-7 kts 22.8°c 1013.8 hPa 91% 1.6mm
24/11:00pm NW 5-7 kts 22.9°c 1013.8 hPa 91% 1.4mm
24/10:49pm N 3-6 kts 23.2°c 1013.9 hPa 88% 1.4mm
24/10:30pm NNW 4-6 kts 22.9°c 1014.1 hPa 89% 0.4mm
24/10:00pm N 4-7 kts 24.2°c 1014.1 hPa 81% 0.0mm
24/09:30pm NE 9-13 kts 25.4°c 1014.3 hPa 69% 0.0mm
24/09:00pm ENE 9-13 kts 25.0°c 1014.2 hPa 71% 0.0mm
24/08:30pm NNE 6-9 kts 24.8°c 1014.2 hPa 74% 0.0mm
24/08:00pm NE 8-11 kts 24.9°c 1014.0 hPa 71% 0.0mm
24/07:30pm NNE 6-8 kts 24.8°c 1013.8 hPa 73% 0.0mm
24/07:00pm NNE 7-8 kts 24.9°c 1013.7 hPa 74% 0.0mm
24/06:30pm ENE 9-12 kts 25.4°c 1013.4 hPa 70% 0.0mm
24/06:00pm ENE 9-12 kts 25.7°c 1013.2 hPa 67% 0.0mm
24/05:30pm NE 10-13 kts 25.7°c 1013.1 hPa 66% 0.0mm
24/05:00pm NE 12-15 kts 26.3°c 1013.0 hPa 65% 0.0mm
24/04:30pm ENE 12-16 kts 25.7°c 1012.8 hPa 70% 0.0mm
24/04:00pm NE 10-14 kts 27.0°c 1012.7 hPa 64% 0.0mm
24/03:30pm NE 10-13 kts 26.6°c 1012.7 hPa 65% 0.0mm
24/03:00pm ENE 12-15 kts 26.6°c 1012.9 hPa 61% 0.0mm
24/02:30pm ENE 10-13 kts 27.1°c 1013.2 hPa 61% 0.0mm
24/02:00pm E 10-14 kts 27.2°c 1013.5 hPa 58% 0.0mm
24/01:30pm ENE 10-13 kts 27.6°c 1013.7 hPa 55% 0.0mm
24/01:00pm ENE 10-13 kts 27.9°c 1014.0 hPa 56% 0.0mm
24/12:30pm ENE 9-12 kts 27.8°c 1014.6 hPa 52% 0.0mm
24/12:00pm NE 10-12 kts 27.6°c 1014.8 hPa 54% 0.0mm
24/11:30am NE 10-13 kts 28.2°c 1015.0 hPa 54% 0.0mm
24/11:00am NNE 8-11 kts 27.2°c 1015.3 hPa 55% 0.0mm
24/10:30am NE 9-11 kts 27.3°c 1015.6 hPa 53% 0.0mm
24/10:00am NE 8-11 kts 27.0°c 1015.8 hPa 53% 0.0mm
24/09:30am ENE 7-13 kts 27.6°c 1015.8 hPa 54% 0.0mm
24/09:00am SE 6-10 kts 26.6°c 1015.8 hPa 52% 0.0mm
24/08:30am SSE 7-10 kts 25.8°c 1015.7 hPa 56% 0.0mm
24/08:00am SSE 7-9 kts 25.6°c 1015.7 hPa 60% 0.0mm
24/07:30am S 5-7 kts 25.0°c 1015.6 hPa 62% 0.0mm
24/07:00am SW 4-5 kts 23.6°c 1015.5 hPa 67% 0.0mm
24/06:30am CALM 0-3 kts 21.7°c 1015.3 hPa 77% 0.0mm
24/06:00am SSW 3-4 kts 21.1°c 1015.0 hPa 83% 0.0mm
24/05:30am SW 3-5 kts 20.1°c 1014.6 hPa 88% 0.0mm
24/05:00am SSW 2-4 kts 19.7°c 1014.3 hPa 91% 0.0mm
24/04:30am SSW 3-5 kts 18.7°c 1014.0 hPa 87% 0.0mm
24/04:00am SSW 2-4 kts 19.7°c 1014.0 hPa 85% 0.0mm
24/03:30am SW 3-4 kts 19.9°c 1014.0 hPa 84% 0.0mm
24/03:00am SW 4-6 kts 19.7°c 1014.0 hPa 85% 0.0mm
24/02:30am SW 2-4 kts 20.1°c 1014.3 hPa 83% 0.0mm
24/02:00am SW 6-7 kts 19.7°c 1014.4 hPa 84% 0.0mm
24/01:30am SW 5-7 kts 19.7°c 1014.7 hPa 85% 0.0mm
24/01:00am WSW 5-7 kts 19.8°c 1015.2 hPa 83% 0.0mm
24/12:30am WSW 4-6 kts 20.1°c 1015.4 hPa 82% 0.0mm
24/12:00am SW 4-5 kts 20.2°c 1015.5 hPa 84% 0.0mm
Time Wind Speed Temp Pressure Rel. Hum Rain
23/11:30pm WSW 5-7 kts 19.9°c 1015.8 hPa 86% 0.0mm
23/11:00pm WSW 5-7 kts 20.2°c 1016.1 hPa 87% 0.0mm
23/10:30pm WSW 6-7 kts 20.7°c 1016.3 hPa 84% 0.0mm
23/10:00pm S 3-5 kts 21.8°c 1016.3 hPa 77% 0.0mm
23/09:30pm E 3-5 kts 22.3°c 1016.2 hPa 73% 0.0mm
23/09:00pm E 6-9 kts 24.3°c 1016.2 hPa 61% 0.0mm
23/08:30pm E 7-8 kts 24.2°c 1016.0 hPa 61% 0.0mm
23/08:00pm E 7-9 kts 24.4°c 1015.7 hPa 61% 0.0mm
23/07:30pm E 8-10 kts 24.4°c 1015.4 hPa 61% 0.0mm
23/07:00pm ENE 9-11 kts 24.6°c 1015.1 hPa 62% 0.0mm
23/06:30pm ENE 8-11 kts 24.9°c 1015.0 hPa 63% 0.0mm
23/06:00pm ENE 8-10 kts 25.3°c 1014.7 hPa 60% 0.0mm
23/05:30pm ENE 8-11 kts 25.9°c 1014.4 hPa 58% 0.0mm
23/05:00pm ENE 8-11 kts 25.7°c 1014.2 hPa 58% 0.0mm
23/04:30pm ENE 9-11 kts 26.5°c 1014.0 hPa 53% 0.0mm
23/04:00pm NE 9-13 kts 27.1°c 1013.8 hPa 52% 0.0mm
23/03:30pm ENE 9-13 kts 27.2°c 1013.9 hPa 53% 0.0mm
23/03:00pm NE 9-12 kts 26.9°c 1014.1 hPa 50% 0.0mm
23/02:30pm ENE 10-14 kts 27.7°c 1014.2 hPa 49% 0.0mm
23/02:00pm NE 10-13 kts 27.3°c 1014.2 hPa 50% 0.0mm
23/01:30pm NE 11-15 kts 27.1°c 1014.3 hPa 52% 0.0mm
23/01:00pm NE 10-14 kts 27.0°c 1014.5 hPa 52% 0.0mm
23/12:30pm ENE 11-14 kts 27.7°c 1014.6 hPa 53% 0.0mm
23/12:00pm NE 10-14 kts 27.3°c 1014.7 hPa 56% 0.0mm
23/11:30am NE 9-13 kts 27.0°c 1014.9 hPa 57% 0.0mm
23/11:00am NE 9-12 kts 26.8°c 1015.2 hPa 57% 0.0mm
23/10:30am NE 7-10 kts 26.4°c 1015.2 hPa 58% 0.0mm
23/10:00am NE 6-10 kts 25.7°c 1015.2 hPa 58% 0.0mm
23/09:30am NNE 6-8 kts 26.5°c 1015.2 hPa 58% 0.0mm
23/09:00am N 5-8 kts 25.4°c 1015.1 hPa 60% n/a
23/08:30am N 5-8 kts 25.5°c 1015.0 hPa 60% n/a
23/08:00am CALM 0-3 kts 25.2°c 1014.9 hPa 64% n/a
23/07:30am S 1-4 kts 24.5°c 1014.9 hPa 66% n/a
23/07:00am CALM 0 kts 22.4°c 1014.7 hPa 77% n/a
23/06:30am CALM 0 kts 20.2°c 1014.6 hPa 88% n/a
23/06:00am SW 3-5 kts 19.3°c 1014.2 hPa 91% n/a
23/05:30am SW 4 kts 18.6°c 1013.9 hPa 94% n/a
23/05:00am SW 4-5 kts 18.5°c 1013.6 hPa 93% n/a
23/04:30am WSW 4 kts 18.4°c 1013.1 hPa 91% n/a
23/04:00am CALM 0 kts 19.0°c 1012.9 hPa 91% n/a
23/03:30am CALM 0 kts 19.4°c 1012.8 hPa 90% n/a
23/03:00am SSW 3-4 kts 18.6°c 1012.6 hPa 89% 0.0mm
23/02:30am WSW 4-6 kts 19.2°c 1012.8 hPa 88% n/a
23/02:00am WSW 2-5 kts 19.0°c 1012.9 hPa 87% n/a
23/01:30am WSW 3-4 kts 19.9°c 1013.2 hPa 85% n/a
23/01:00am W 5-6 kts 19.7°c 1013.3 hPa 85% n/a
23/12:30am WSW 6-7 kts 20.1°c 1013.4 hPa 87% n/a
23/12:00am W 5-6 kts 20.3°c 1013.7 hPa 84% n/a